Epoch 2023 Feb. 25.0 TT = JDT 2460000.5 T 2023 Feb. 21.38012 TT Rudenko q 1.3681616 (2000.0) P Q n 0.16911652 Peri. 205.17763 -0.20770343 -0.97059800 a 3.2385109 Node 257.00022 +0.91727719 -0.15005709 e 0.5775337 Incl. 7.17210 +0.33979676 -0.18820836 P 5.83 >From 958 observations 1998 Jan. 26-2023 Apr. 3, mean residual 0".5.
H = 16.0 G = 0.15 [ ,-140] ( 〜2022年10月 4日) m1 = 15.2 + 5 logΔ + 10.0 log r [-140, 170] (2022年10月 4日〜2023年 8月10日) H = 16.0 G = 0.15 [ 170, ] (2023年 8月10日〜 )